TIME,DELAY(SENSOR),PRES,OXYGEN,RAWTEMP,T(OPTODE),TCPHASE,FLUOR,BETA(BETA700),BETA(BETA412),BETA(BETA440),CDOM,C(CSC),ED(ED412.40),ED(ED444.00),ED(ED489.70),ED(ED554.30),LU(LU411.80),LU(LU443.40),LU(LU489.60),LU(LU554.10),COMP,TILTX,TILTY,CHECK
1337398822,5812,884.3200073242188000,42.9170303344726560,661.5230712890625000,4.5778160095214840,54.5798683166503900,53,101,87,80,84,15342,2147757074,2147422427,2148003218,2147874962,2147641069,2147064448,2148256320,2147196205,3436,4,14,8246
1337402418,5807,963.4799804687500000,46.4968605041503900,670.2874145507812000,4.2887020111083980,54.1630897521972660,53,100,86,78,84,15339,2147759698,2147422363,2148004388,2147876598,2147644800,2147057536,2148261266,2147202093,563,4,13,36441
1337406018,5812,975.0800170898438000,47.5988311767578100,671.7545776367188000,4.2402191162109375,54.0261192321777340,53,100,87,80,83,15338,2147758436,2147423552,2148005330,2147878244,2147646537,2147054180,2148261248,2147199314,3517,4,13,38094
1337409618,5810,984.3900146484375000,47.4319000244140600,672.8043823242188000,4.2055110931396480,54.0622291564941400,53,99,85,78,83,15339,2147759616,2147419492,2148007579,2147876726,2147642185,2147069065,2148262665,2147198390,36,5,13,62259
1337413218,5808,989.3800048828125000,46.9776306152343750,672.4152832031250000,4.2183761596679690,54.1235084533691400,52,98,91,80,84,15336,2147763355,2147422006,2148005485,2147874834,2147642779,2147066267,2148258340,2147202084,11,4,13,43987
1337416818,5809,988.5300292968750000,47.1445312500000000,672.8291015625000000,4.2046971321105960,54.1066093444824200,53,99,87,81,83,15338,2147758930,2147418898,2148008438,2147874057,2147644416,2147063405,2148257051,2147199515,166,4,13,4126
1337420418,5811,995.1699829101562000,46.7518806457519500,672.5266723632812000,4.2146949768066410,54.1575202941894500,52,98,89,80,83,15338,2147757952,2147419940,2148007094,2147878729,2147645750,2147057435,2148259803,2147201792,98,4,13,57382
1337424018,5809,997.5300292968750000,46.5223388671875000,672.7313232421875000,4.2079300880432130,54.1926918029785160,53,100,89,78,83,15338,2147759808,2147420370,2148007542,2147874678,2147642285,2147061915,2148257161,2147200146,172,4,13,59176
1337427618,5811,992.2100219726562000,46.7355003356933600,673.1176757812500000,4.1951541900634770,54.1622695922851560,54,98,89,80,84,15337,2147757888,2147421430,2148005275,2147874998,2147644580,2147062656,2148260909,2147198308,325,4,13,52501
1337431218,5810,997.9500122070312000,46.8159103393554700,673.1229248046875000,4.1949830055236820,54.1568107604980500,53,101,89,80,83,15339,2147759067,2147422427,2148003675,2147876827,2147642953,2147059977,2148257728,2147200649,45,5,13,1928
1337434818,5812,998.8499755859375000,46.6036415100097660,673.1060180664062000,4.1955409049987790,54.1847496032714840,52,99,90,79,84,15334,2147759186,2147418194,2148003657,2147875922,2147645860,2147063625,2148259126,2147200484,477,4,13,35024
1337438418,5807,999.6300048828125000,46.2271118164062500,672.8425903320312000,4.2042498588562010,54.2384605407714840,52,99,91,79,82,15335,2147758134,2147420388,2148004352,2147874304,2147645558,2147060196,2148255734,2147200374,85,4,13,940
1337442018,5808,1006.3099975585938000,46.2542381286621100,672.0513916015625000,4.2304081916809080,54.2204399108886700,53,99,86,79,83,15331,2147758363,2147421613,2148005028,2147876205,2147643236,2147062107,2148258084,2147200676,267,4,13,42010
1337445618,5809,1001.0399780273438000,46.1004219055175800,672.7067871093750000,4.2087378501892090,54.2505111694335940,52,99,85,80,82,15333,2147757330,2147423012,2148007012,2147877869,2147644690,2147066075,2148262966,2147199552,189,4,13,49709
1337449218,5809,996.6599731445312000,46.5876617431640600,673.4915771484375000,4.1827888488769530,54.1897697448730500,53,102,89,79,83,15333,2147760521,2147419081,2148004333,2147877357,2147642377,2147058980,2148259318,2147196845,542,4,13,48798
1337452818,5811,1000.2299804687500000,46.9332695007324200,673.8607788085938000,4.1705741882324220,54.1445312500000000,52,98,88,80,83,15331,2147755821,2147420406,2148007725,2147875657,2147643117,2147056978,2148261220,2147198464,95,4,13,59446
1337456418,5809,1006.1599731445312000,46.6064910888671900,672.7755737304688000,4.2064671516418460,54.1797103881835940,53,100,89,79,84,15333,2147758299,2147421302,2148008310,2147875227,2147644754,2147058624,2148264210,2147201600,3070,4,14,5601
1337460018,5808,1008.2700195312500000,46.1709289550781250,672.6035156250000000,4.2121539115905760,54.2370796203613300,52,98,93,78,84,15323,2147760932,2147419748,2148004452,2147878400,2147643501,2147059181,2148260763,2147202240,126,4,13,34627
1337463618,5809,1012.2299804687500000,46.1587600708007800,672.7188110351562000,4.2083449363708500,54.2418289184570300,53,99,89,79,84,15336,2147761929,2147423122,2148006802,2147876178,2147642285,2147064566,2148261001,2147201161,3246,4,13,21731
1337467218,5809,1005.3900146484375000,46.1709594726562500,672.9708862304688000,4.2000050544738770,54.2433700561523440,52,99,91,80,84,15334,2147758363,2147420050,2148009161,2147874752,2147643474,2147061156,2148260388,2147200896,533,4,13,6714
1337470818,5811,1003.2299804687500000,46.2723503112793000,673.1038818359375000,4.1956100463867190,54.2322311401367200,52,100,89,80,83,15333,2147762724,2147422436,2148009179,2147877366,2147642660,2147062409,2148263954,2147197622,3285,4,13,28528
1337474418,5808,995.0100097656250000,46.4683799743652340,673.6452026367188000,4.1777081489562990,54.2098197937011700,52,99,90,80,83,15333,2147760786,2147419346,2148004955,2147875748,2147647030,2147058614,2148258587,2147198966,579,4,13,53543
1337478018,5805,1002.2199707031250000,46.9819183349609400,674.0714111328125000,4.1636090278625490,54.1406517028808600,51,100,89,80,83,15329,2147759350,2147422326,2148004873,2147875657,2147644900,2147066477,2148262016,2147198601,364,4,13,1512
1337481618,5808,996.0900268554688000,47.6554298400878900,675.5695190429688000,4.1140398979187010,54.0661087036132800,52,101,88,80,84,15330,2147761965,2147420114,2148006116,2147877019,2147643648,2147060132,2148261686,2147201069,51,4,13,45529
1337485218,5807,1010.3599853515625000,47.0217704772949200,673.6856079101562000,4.1763710975646970,54.1324806213378900,53,100,91,80,83,15319,2147760420,2147421037,2148005677,2147876242,2147643995,2147056338,2148258569,2147198217,3555,4,13,3523
1337488818,5810,1021.8499755859375000,46.6332397460937500,672.6312866210938000,4.2112350463867190,54.1733818054199200,53,100,84,78,83,15316,2147757613,2147421248,2148005513,2147872393,2147643922,2147059282,2148262244,2147198464,217,4,13,61484
1337492418,5810,1010.7100219726562000,46.0061988830566400,672.8635864257812000,4.2035541534423830,54.2626304626464840,53,98,91,79,83,15319,2147761225,2147421467,2148005412,2147875684,2147646738,2147058368,2148258048,2147202249,380,4,13,40963
1337496018,5808,1011.1799926757812000,45.5293388366699200,672.7747192382812000,4.2064929008483890,54.3316116333007800,52,100,89,80,83,15316,2147760630,2147418962,2148007213,2147875291,2147645348,2147063561,2148259702,2147196251,588,4,13,42134
1337499618,5808,1014.2600097656250000,46.1226806640625000,672.6580200195312000,4.2103562355041500,54.2445106506347660,52,98,89,79,83,15315,2147758272,2147419529,2148004617,2147876553,2147645668,2147060937,2148260105,2147198902,3521,4,13,36843
1337503218,5810,1003.4400024414062000,46.3739204406738300,673.6210937500000000,4.1785049438476560,54.2224998474121100,53,100,91,78,84,15313,2147759524,2147421933,2148004278,2147878573,2147644690,2147062217,2148262427,2147200630,3572,4,13,61685
1337506818,5807,1003.5900268554688000,47.5078392028808600,675.5479736328125000,4.1147499084472660,54.0851402282714840,52,98,88,79,83,15315,2147760694,2147420690,2148005558,2147875584,2147644845,2147056594,2148259730,2147201152,3269,4,13,62016
1337510418,5810,1010.4899902343750000,47.3668899536132800,674.2150878906250000,4.1588568687438965,54.0928993225097660,53,221,83,78,83,15311,2147764580,2147420196,2148004068,2147877504,2147643693,2147063177,2148260169,2147204690,3334,4,13,41768
1337514018,5810,1012.3599853515625000,46.3376007080078100,673.5366821289062000,4.1812930107116700,54.2256202697753900,54,99,89,80,85,15315,2147761280,2147419986,2148006774,2147877906,2147646921,2147061558,2148255104,2147199414,3577,4,13,52343
1337517618,5805,1013.2199707031250000,46.1255989074707000,673.0371093750000000,4.1978168487548830,54.2556114196777340,53,104,86,79,83,15312,2147759744,2147421037,2148007040,2147878317,2147646756,2147059017,2148258806,2147200676,3554,4,13,1046
1337521218,5811,1004.6400146484375000,46.0453109741210940,673.2730712890625000,4.1900157928466800,54.2642097473144500,53,101,88,79,83,15312,2147758189,2147419894,2148007762,2147876260,2147643300,2147059675,2148262134,2147201243,13,4,13,41067
1337524818,5809,1007.0300292968750000,46.8048706054687500,674.4235229492188000,4.1519598960876465,54.1730499267578100,53,98,91,79,83,15316,2147756178,2147423405,2148008594,2147874614,2147645485,2147058834,2148255570,2147196525,20,4,13,5892
1337528418,5806,1013.3900146484375000,46.8869514465332000,674.4782104492188000,4.1501522064208980,54.1615715026855500,53,98,88,79,83,15307,2147765357,2147421750,2148005888,2147877824,2147642870,2147064155,2148259620,2147200969,422,4,14,38978
1337532018,5807,1012.2199707031250000,46.6914405822753900,673.3278808593750000,4.1881999969482420,54.1783714294433600,52,98,87,80,83,15313,2147761225,2147420160,2148007094,2147875958,2147643364,2147064896,2148257362,2147201334,177,4,13,50900
1337535618,5811,1012.1900024414062000,46.5458602905273440,673.5051879882812000,4.1823368072509770,54.2007102966308600,52,98,87,80,83,15308,2147759890,2147420589,2148007515,2147876333,2147640804,2147068416,2148262116,2147201005,265,4,13,20111
1337539218,5810,1017.5700073242188000,46.4215698242187500,673.5645751953125000,4.1803741455078125,54.2184715270996100,53,100,89,80,84,15313,2147763108,2147419638,2148005750,2147876708,2147643538,2147058102,2148256109,2147200786,354,4,13,50073
1337542818,5807,1017.9299926757812000,46.7531585693359400,673.6818847656250000,4.1764931678771970,54.1695289611816400,52,98,87,80,82,15312,2147759762,2147420233,2148005650,2147877741,2147641645,2147059273,2148258651,2147200923,3571,4,13,1715
1337543456,5808,1015.3200073242188000,46.8695411682128900,673.5598144531250000,4.1805319786071780,54.1507682800293000,53,101,89,80,84,15327,2147760603,2147418633,2148005723,2147874066,2147644443,2147059904,2148262427,2147203730,613,4,13,46048
